Voltar ao catálogo

COSMOS 1375 DEB

AtivoLEO
NORAD 17105·DEBRIS·🇷🇺 Russia

Lançado Jun 6, 1982 de Plesetsk Cosmodrome

Loading…

Próximas Passagens (próximas 24 horas)

TLE

AtualizadoSource: Space-Track

Época: Sep 14, 2026, 07:41 UTC

1 17105U 82055AG  26257.32023297  .00000108  00000-0  19577-3 0  9995
2 17105  65.8330 358.1804 0028365 348.8200  44.2928 13.75520130 48636

Acompanhe COSMOS 1375 DEB em tempo real com AllMySat

Download on the App Store